Search for airport 
image banner adimage banner adimage banner ad
image banner ad

KEED - Needles

Located in Needles, United States

ICAO - EED, IATA - EED

Data provided by Airmate  

General information

Coordinates: N34°45'59" W114°37'24"
Elevation is 983 feet MSL.
Magnetic variation is 14° East
View others Airports in California

Operational data

Special qualification required
Current time UTC:
Current local time:
Weather
METAR: KEED 210056Z AUTO 36013KT 10SM CLR 34/M01 A2990 RMK AO2 SLP096 T03441011
TAF: KEED 202320Z 2100/2124 01011KT P6SM SKC FM210300 31007KT P6SM SKC FM211600 01014G22KT P6SM SKC FM212100 01008KT P6SM SKC
View NOTAMs / SUP AIP / TFR affecting this airport [VIEW]
Communications frequencies: [VIEW]

Runways:

RWY identifierQFULength (ft)Width (ft)SurfaceLDA (ft)
0229°4235100ASPH
20209°4235100ASPH
11119°5005100ASPH
29299°5005100ASPH

Airport contact information

Address: Needles United States

Satellite view of KEED